User: anonymous   Login
Location: Oshawa
(43.9000°N, 78.8670°W)
Time: 06:22:11
(UTC-04:00)
Language:

Hubble Space Telescope - Orbit

View from above orbital plane
View from above orbital plane
View from above satellite
View from above satellite

Ground track
Ground track

The orbit data is extracted from the following two-line orbital elements,

1 20580U 90037B   18113.43362451 +.00000496 +00000-0 +19402-4 0  9995
2 20580 028.4688 117.0529 0002441 271.2273 239.6363 15.09022390337100
Epoch (UTC): 23 April 2018 10:24:25
Eccentricity: 0.0002441
inclination: 28.4688°
perigee height: 537 km
apogee height: 541 km
right ascension of ascending node: 117.0529°
argument of perigee: 271.2273°
revolutions per day: 15.09022390
mean anomaly at epoch: 239.6363°
orbit number at epoch: 33710

The dashed part of the orbit path shows where the satellite is in the earth's shadow,  

DLR